GW4836 Weather Reports


Display with metric or nautical units.
time (UTC)temp
F
wind
direction
speed
MPH
gust
MPH
rain 1hr
in
rain 24hr
in
rain mn
in
humidity
%
barometer
mb
20260906230013 63 323 7.0 12.0 0.00 0.07 0.01 73 1016.3
20260906224513 64 23 4.0 9.0 0.00 0.07 0.01 75 1016.3
20260906223012 63 49 4.0 9.0 0.00 0.07 0.01 74 1016.5
20260906221510 63 44 5.0 12.0 0.00 0.07 0.01 75 1016.5
20260906220016 63 29 5.0 10.0 0.00 0.07 0.01 75 1016.3
20260906214510 62 53 6.0 12.0 0.00 0.07 0.01 75 1016.4
20260906213010 63 51 8.0 12.0 0.00 0.07 0.01 74 1016.4
20260906211508 63 19 6.0 12.0 0.00 0.07 0.01 74 1016.4
20260906210008 63 59 8.0 14.0 0.00 0.07 0.01 73 1016.4
20260906204507 63 22 8.0 14.0 0.00 0.07 0.01 73 1016.4
20260906203006 63 23 8.0 16.0 0.00 0.07 0.01 73 1016.4
20260906201505 63 50 10.0 15.0 0.00 0.07 0.01 73 1016.4
20260906200006 63 32 10.0 16.0 0.00 0.07 0.01 73 1016.5
20260906194504 63 5 10.0 15.0 0.00 0.07 0.01 72 1016.6
20260906193004 63 38 10.0 18.0 0.00 0.07 0.01 71 1016.5
20260906191503 63 26 12.0 18.0 0.00 0.07 0.01 70 1016.5
20260906190002 64 20 12.0 21.0 0.00 0.07 0.01 68 1016.4
20260906184625 63 20 15.0 21.0 0.00 0.07 0.01 69 1016.5
20260906183058 62 45 14.0 22.0 0.00 0.07 0.01 69 1016.4
20260906181554 61 35 14.0 20.0 0.00 0.07 0.01 74 1016.7
20260906180050 60 14 8.0 16.0 0.00 0.07 0.01 79 1017.1
20260906174548 57 57 7.0 12.0 0.00 0.07 0.01 81 1017.2
20260906173044 58 15 5.0 13.0 0.00 0.07 0.01 81 1018.2
20260906171546 57 331 9.0 14.0 0.00 0.07 0.01 80 1018.2
20260906170042 57 360 8.0 13.0 0.00 0.07 0.01 81 1018.1
20260906164542 57 340 8.0 12.0 0.00 0.07 0.01 83 1018.2
20260906163041 58 36 7.0 11.0 0.01 0.07 0.01 85 1018.3
20260906161540 58 49 4.0 9.0 0.01 0.07 0.01 88 1018.0
20260906160039 57 59 2.0 5.0 0.01 0.07 0.01 88 1018.3
20260906154538 56 36 1.0 6.0 0.01 0.07 0.01 87 1018.6
20260906153038 55 317 4.0 9.0 0.00 0.06 0.00 85 1018.9
20260906151547 55 294 9.0 15.0 0.00 0.06 0.00 85 1018.9
20260906150037 55 323 8.0 16.0 0.00 0.06 0.00 87 1018.7
20260906144536 57 292 13.0 21.0 0.00 0.06 0.00 83 1019.3
20260906143035 58 46 5.0 12.0 0.00 0.06 0.00 86 1018.7
20260906141532 57 42 8.0 14.0 0.00 0.06 0.00 86 1018.4
20260906140031 57 355 6.0 12.0 0.00 0.10 0.00 86 1018.8
20260906134530 57 40 11.0 17.0 0.00 0.10 0.00 86 1018.3
20260906133029 56 42 11.0 16.0 0.00 0.10 0.00 87 1018.2
20260906131529 56 36 7.0 15.0 0.00 0.10 0.00 87 1018.4
20260906130027 56 30 10.0 16.0 0.00 0.10 0.00 88 1018.4
20260906124535 56 57 11.0 16.0 0.00 0.10 0.00 88 1018.6
20260906123034 56 63 10.0 18.0 0.00 0.10 0.00 88 1018.4
20260906121524 55 27 11.0 18.0 0.00 0.10 0.00 88 1018.5
20260906120023 55 14 10.0 16.0 0.00 0.10 0.00 88 1018.7
20260906114522 55 31 10.0 15.0 0.00 0.10 0.00 88 1018.8
20260906113021 55 43 9.0 18.0 0.00 0.10 0.00 87 1018.6
20260906111519 55 30 11.0 17.0 0.00 0.10 0.00 86 1018.5
20260906110022 56 25 12.0 21.0 0.00 0.10 0.00 86 1018.5
20260906104520 55 37 12.0 19.0 0.00 0.10 0.00 86 1018.6
20260906103038 55 30 12.0 19.0 0.00 0.10 0.00 86 1018.7
20260906101516 55 34 11.0 19.0 0.00 0.10 0.00 86 1019.0
20260906100024 55 28 12.0 21.0 0.00 0.10 0.00 85 1018.8
20260906094513 55 33 13.0 20.0 0.00 0.10 0.00 87 1018.8
20260906093012 55 327 15.0 25.0 0.00 0.10 0.00 86 1018.9
20260906091509 56 331 16.0 22.0 0.00 0.10 0.00 85 1019.0
20260906090008 56 315 13.0 17.0 0.00 0.10 0.00 86 1019.7
20260906084507 55 336 13.0 22.0 0.00 0.10 0.00 86 1019.3
20260906083005 56 33 16.0 22.0 0.00 0.10 0.00 85 1019.2
20260906081503 56 338 15.0 23.0 0.00 0.10 0.00 85 1019.3
20260906074558 56 22 14.0 23.0 0.00 0.10 0.00 84 1019.4
20260906073058 56 30 15.0 24.0 0.00 0.10 0.00 83 1019.4
20260906071553 57 24 15.0 21.0 0.00 0.10 0.00 83 1019.4
20260906070051 57 351 14.0 22.0 0.00 0.10 0.00 82 1019.9
20260906064550 57 11 13.0 22.0 0.00 0.10 0.00 83 1020.0
20260906063048 57 30 13.0 23.0 0.00 0.10 0.00 83 1020.0
20260906061545 57 37 15.0 24.0 0.00 0.10 0.00 83 1020.1
20260906060043 57 19 16.0 23.0 0.00 0.10 0.10 84 1020.1
20260906054542 56 21 15.0 22.0 0.01 0.10 0.10 85 1020.2
20260906053042 56 35 16.0 23.0 0.01 0.10 0.10 85 1019.9
20260906051541 55 23 14.0 20.0 0.01 0.10 0.10 85 1020.1
20260906050045 56 13 15.0 22.0 0.01 0.10 0.10 82 1019.8
20260906044543 57 327 15.0 27.0 0.00 0.09 0.09 81 1020.8
20260906043041 56 347 18.0 28.0 0.01 0.09 0.09 84 1019.6
20260906041540 56 13 17.0 28.0 0.05 0.09 0.09 85 1019.2
20260906040039 55 30 17.0 26.0 0.05 0.09 0.09 87 1019.4
20260906034539 56 9 19.0 25.0 0.05 0.09 0.09 85 1019.8
20260906033039 58 11 16.0 24.0 0.03 0.07 0.07 77 1020.0
20260906031538 60 35 18.0 27.0 0.00 0.04 0.04 69 1019.9
20260906030036 59 24 17.0 27.0 0.00 0.04 0.04 68 1018.7
20260906024539 59 38 19.0 27.0 0.00 0.04 0.04 67 1018.5
20260906023042 60 23 19.0 27.0 0.00 0.04 0.04 66 1018.3
20260906021541 60 29 16.0 27.0 0.00 0.04 0.04 66 1018.3
20260906020032 61 27 18.0 26.0 0.00 0.04 0.04 65 1018.4
20260906014537 62 30 14.0 21.0 0.00 0.04 0.04 63 1018.4
20260906013040 63 28 15.0 21.0 0.00 0.04 0.04 61 1018.3
20260906011533 64 40 11.0 17.0 0.00 0.04 0.04 59 1018.5
20260906010029 65 29 12.0 17.0 0.00 0.04 0.04 57 1018.4
20260906004528 66 16 12.0 21.0 0.00 0.04 0.04 54 1018.6
20260906003027 68 31 13.0 20.0 0.00 0.04 0.04 53 1018.6
20260906001525 69 31 14.0 20.0 0.00 0.04 0.04 52 1018.5
20260906000025 70 35 14.0 22.0 0.00 0.04 0.04 51 1018.7
20260905234525 70 27 13.0 19.0 0.00 0.04 0.04 49 1018.9
20260905233024 71 30 7.0 15.0 0.00 0.04 0.04 47 1018.7
20260905231523 71 61 9.0 15.0 0.00 0.04 0.04 46 1018.7